FW3027 Weather Reports


time (UTC)temp
F
wind
direction
speed
knots
gust
knots
rain 1hr
in
rain 24hr
in
rain mn
in
humidity
%
barometer
mb
20260901124556 72 175 0.0 4.3 0.00 0.08 0.00 97 1012.1
20260901123022 71 230 1.7 4.3 0.00 0.08 0.00 96 1011.9
20260901121555 70 181 0.0 3.5 0.00 0.08 0.00 96 1011.9
20260901114525 69 192 0.0 1.7 0.00 0.08 0.00 95 1011.5
20260901113054 69 192 0.0 1.7 0.00 0.08 0.00 95 1011.3
20260901111523 69 193 0.0 2.6 0.00 0.08 0.00 95 1011.2
20260901110046 68 197 0.0 0.0 0.00 0.08 0.00 94 1011.3
20260901104513 69 200 0.9 2.6 0.00 0.08 0.00 94 1011.2
20260901103044 69 200 0.0 0.9 0.00 0.08 0.00 94 1011.1
20260901101515 69 200 0.0 0.9 0.00 0.08 0.00 94 1011.1
20260901100030 69 197 0.0 0.9 0.00 0.08 0.00 94 1011.3
20260901094556 69 197 0.0 0.0 0.00 0.08 0.00 94 1011.0
20260901093028 69 197 0.0 0.0 0.00 0.08 0.00 94 1011.2
20260901091606 69 197 0.0 0.0 0.00 0.08 0.00 94 1011.0
20260901090020 70 197 0.0 0.0 0.00 0.08 0.00 94 1011.0
20260901084551 70 197 0.0 1.7 0.00 0.08 0.00 94 1011.0
20260901083023 70 198 0.0 0.9 0.00 0.08 0.00 94 1011.0
20260901081555 70 198 0.0 0.9 0.00 0.08 0.00 94 1011.0
20260901080015 70 198 0.0 2.6 0.00 0.08 0.00 93 1011.0
20260901074542 70 190 0.0 1.7 0.00 0.08 0.00 93 1010.9
20260901073023 70 190 0.0 1.7 0.00 0.08 0.00 93 1011.0
20260901071549 70 194 0.0 2.6 0.00 0.08 0.00 93 1010.9
20260901070002 70 188 0.0 0.9 0.00 0.08 0.00 92 1011.0
20260901064542 70 191 0.0 2.6 0.00 0.08 0.00 92 1011.0
20260901063006 70 188 0.0 1.7 0.00 0.08 0.00 91 1011.0
20260901061539 70 183 0.0 3.5 0.00 0.08 0.00 91 1011.0
20260901060054 70 211 0.0 2.6 0.00 0.08 0.00 91 1011.0
20260901054525 70 196 0.0 0.0 0.00 0.08 0.00 90 1011.1
20260901053050 71 196 0.0 0.0 0.00 0.08 0.00 90 1011.2
20260901051522 71 196 0.0 0.0 0.00 0.08 0.00 90 1011.2
20260901050032 71 199 0.0 0.0 0.00 0.08 0.00 89 1011.3
20260901044501 72 199 0.0 0.0 0.00 0.08 0.00 89 1011.3
20260901043033 72 199 0.0 0.0 0.00 0.08 0.00 89 1011.2
20260901041601 73 199 0.0 0.0 0.00 0.08 0.00 88 1011.3
20260901040016 73 199 0.0 0.0 0.00 0.08 0.08 88 1011.4
20260901034550 74 199 0.0 0.0 0.00 0.08 0.08 87 1011.4
20260901033031 74 199 0.0 0.0 0.00 0.08 0.08 87 1011.6
20260901031552 74 199 0.0 0.9 0.00 0.08 0.08 87 1011.4
20260901030007 75 199 0.0 0.9 0.00 0.08 0.08 88 1011.4
20260901024539 75 199 0.0 4.3 0.00 0.08 0.08 87 1011.2
20260901023008 75 187 0.0 4.3 0.00 0.08 0.08 87 1011.2
20260901021551 75 198 0.0 6.1 0.00 0.08 0.08 86 1011.2
20260901020057 76 180 0.9 3.5 0.00 0.08 0.08 86 1011.3
20260901014529 76 202 0.9 3.5 0.00 0.08 0.08 85 1011.3
20260901013003 76 184 0.0 6.1 0.00 0.08 0.08 84 1011.3
20260901011537 77 242 0.9 3.5 0.00 0.08 0.08 83 1011.2
20260901010056 77 200 0.9 3.5 0.00 0.08 0.08 83 1010.9
20260901004522 77 219 0.0 4.3 0.00 0.08 0.08 83 1010.9
20260901003104 78 231 0.0 6.1 0.00 0.08 0.08 83 1010.9
20260901001528 78 207 0.9 7.0 0.00 0.08 0.08 82 1010.9
20260901000027 79 219 1.7 5.2 0.00 0.08 0.08 82 1010.9
20260831234559 79 248 2.6 7.8 0.00 0.08 0.08 81 1010.6
20260831233031 80 179 2.6 7.0 0.00 0.08 0.08 81 1010.5
20260831203033 78 157 2.6 8.7 0.00 0.08 0.08 84 1010.5
20260831201503 77 142 0.9 7.8 0.00 0.08 0.08 85 1010.6
20260831200021 76 182 0.9 7.8 0.00 0.08 0.08 89 1010.5
20260831194636 75 161 2.6 7.0 0.01 0.08 0.08 89 1010.6
20260831193027 76 131 0.9 6.1 0.01 0.08 0.08 89 1011.2
20260831191559 76 109 0.0 6.1 0.03 0.08 0.08 88 1011.1
20260831190009 75 140 0.0 0.9 0.03 0.08 0.08 87 1011.5
20260831184553 76 110 1.7 7.0 0.02 0.07 0.07 84 1011.4
20260831183018 77 176 0.0 2.6 0.02 0.07 0.07 82 1012.4
20260831181551 78 266 0.0 3.5 0.00 0.05 0.05 80 1012.5
20260831180013 78 166 0.9 4.3 0.00 0.05 0.05 81 1011.8
20260831174545 78 202 0.9 4.3 0.00 0.05 0.05 81 1011.8
20260831173016 78 188 0.9 7.8 0.00 0.05 0.05 83 1011.9
20260831171546 77 123 2.6 7.8 0.00 0.05 0.05 84 1011.9
20260831170100 76 130 3.5 9.6 0.00 0.05 0.05 86 1011.7
20260831164528 75 217 2.6 7.0 0.00 0.05 0.05 89 1012.2
20260831163058 74 177 0.9 9.6 0.00 0.05 0.05 92 1012.5
20260831161526 73 274 1.7 6.1 0.00 0.05 0.05 94 1012.7
20260831160043 73 155 2.6 7.8 0.00 0.05 0.05 94 1012.8
20260831154518 72 144 1.7 6.1 0.00 0.05 0.05 94 1013.0
20260831153038 71 120 0.9 6.1 0.02 0.05 0.05 94 1012.9
20260831151507 71 129 1.7 6.1 0.02 0.05 0.05 94 1013.1
20260831150021 71 161 1.7 7.8 0.05 0.05 0.05 93 1013.0
20260831144621 71 149 1.7 4.3 0.05 0.05 0.05 93 1013.2
20260831143023 71 144 0.9 5.2 0.03 0.03 0.03 93 1013.4
20260831141558 71 132 1.7 3.5 0.03 0.03 0.03 93 1013.0
20260831140013 71 136 0.0 2.6 0.00 0.11 0.00 93 1013.1
20260831134546 70 143 0.9 2.6 0.00 0.11 0.00 94 1013.3
20260831133015 70 159 0.0 1.7 0.00 0.11 0.00 94 1013.4
20260831131600 70 220 0.9 5.2 0.00 0.11 0.00 95 1013.4
20260831130006 70 155 1.7 6.1 0.00 0.47 0.00 95 1013.1